Austin, TX

4:05 PM CDT on May 29, 2017 (GMT -0500)
Austin

Weather History for KATT - November, 2012

Change the Weather History Date:

Thursday, November 8, 2012

  Actual Average Record
Temperature  
Mean Temperature 70 °F 64 °F  
Max Temperature 85 °F 74 °F 88 °F (1989)
Min Temperature 55 °F 54 °F 30 °F (1959)
Degree Days  
Heating Degree Days 0 4  
Month to date heating degree days 0 27  
Since 1 July heating degree days 60 58  
Cooling Degree Days 5 3  
Month to date cooling degree days 46 28  
Year to date cooling degree days 3510 3093  
Growing Degree Days 20 (Base 50)    
Moisture  
Dew Point 55 °F    
Average Humidity 63    
Maximum Humidity 93    
Minimum Humidity 32    
Precipitation  
Precipitation 0.00 in 0.11 in 2.91 in (1990)
Month to date precipitation 0.00 0.86  
Year to date precipitation 32.67 29.82  
Snow  
Snow 0.00 in - - ()
Month to date snowfall 0.0  
Since 1 July snowfall 0.0  
Since 1 September snowfall 0.0  
Snow Depth 0.00 in    
Sea Level Pressure  
Sea Level Pressure 30.08 in    
Wind  
Wind Speed 5 mph (SSE)    
Max Wind Speed 14 mph    
Max Gust Speed 26 mph    
Visibility 8 miles    
Events Fog    
T = Trace of Precipitation, MM = Missing Value Source: NWS Daily Summary

Daily Weather History Graph

Daily Weather History Graph

Search for Another Location

Airport or City:

Trip Planner

Search our weather history database for the weather conditions in past years. The results will help you decide how hot, cold, wet, or windy it might be!

Date:

Astronomy

Nov. 08, 2012 Rise Set
Actual Time 6:51 AM CST 5:38 PM CST
Civil Twilight 6:26 AM CST 6:03 PM CST
Nautical Twilight 5:57 AM CST 6:31 PM CST
Astronomical Twilight 5:29 AM CST 7:00 PM CST
Moon 1:12 AM CST (11/8) 1:58 PM CST (11/8)
Length of Visible Light 11h 36m
Length of Day
10h 46m
Waning Crescent, 32% of the Moon is Illuminated
Nov 8
Waning Crescent
Nov 13
New
Nov 20
First Quarter
Nov 28
Full
Dec 6
Last Quarter

Hourly Weather History & Observations

Time (CST) Temp. Heat Index Dew Point Humidity Pressure Visibility Wind Dir Wind Speed Gust Speed Precip Events Conditions
12:51 AM 60.1 °F - 48.9 °F 67% 30.08 in 10.0 mi SSE 3.5 mph - N/A   Clear
1:51 AM 57.9 °F - 48.9 °F 72% 30.07 in 10.0 mi Calm Calm - N/A   Clear
2:51 AM 57.0 °F - 50.0 °F 77% 30.07 in 10.0 mi Calm Calm - N/A   Clear
3:51 AM 55.9 °F - 50.0 °F 80% 30.07 in 10.0 mi Calm Calm - N/A   Clear
4:51 AM 55.9 °F - 52.0 °F 87% 30.08 in 10.0 mi Calm Calm - N/A   Clear
5:51 AM 55.0 °F - 52.0 °F 89% 30.09 in 10.0 mi Calm Calm - N/A   Clear
6:51 AM 55.9 °F - 53.1 °F 90% 30.11 in 10.0 mi Calm Calm - N/A   Clear
7:15 AM 55.0 °F - 53.1 °F 93% 30.13 in 7.0 mi Calm Calm - N/A   Scattered Clouds
7:24 AM 55.9 °F - 53.1 °F 90% 30.13 in 6.0 mi Calm Calm - N/A   Mostly Cloudy
7:48 AM 57.2 °F - 55.4 °F 94% 30.14 in 1.8 mi Calm Calm - N/A   Overcast
7:51 AM 57.0 °F - 55.0 °F 93% 30.13 in 0.8 mi Calm Calm - N/A   Overcast
8:02 AM 57.0 °F - 55.9 °F 96% 30.14 in 0.2 mi Calm Calm - N/A Fog Fog
8:29 AM 59.0 °F - 57.9 °F 96% 30.15 in 1.0 mi SE 4.6 mph - N/A   Mist
8:51 AM 59.0 °F - 57.9 °F 96% 30.14 in 2.0 mi SSE 4.6 mph - N/A   Overcast
9:02 AM 61.0 °F - 57.9 °F 90% 30.16 in 6.0 mi Variable 3.5 mph - N/A   Overcast
9:30 AM 64.0 °F - 57.9 °F 80% 30.16 in 7.0 mi ESE 5.8 mph - N/A   Scattered Clouds
9:51 AM 66.9 °F - 59.0 °F 76% 30.15 in 10.0 mi SSE 6.9 mph - N/A   Clear
10:51 AM 73.9 °F - 60.1 °F 62% 30.12 in 10.0 mi Variable 6.9 mph - N/A   Clear
11:51 AM 79.0 °F - 57.0 °F 47% 30.09 in 10.0 mi South 9.2 mph 19.6 mph N/A   Clear
12:51 PM 81.0 °F 80.8 °F 55.9 °F 42% 30.05 in 10.0 mi SSE 11.5 mph 26.5 mph N/A   Clear
1:51 PM 84.0 °F - 52.0 °F 33% 30.01 in 10.0 mi North - - N/A   Clear
2:51 PM 82.0 °F - 50.0 °F 33% 30.00 in 10.0 mi South 10.4 mph 21.9 mph N/A   Clear
3:51 PM 82.9 °F - 51.1 °F 33% 29.99 in 10.0 mi SSE 9.2 mph 17.3 mph N/A   Clear
4:51 PM 80.1 °F 79.9 °F 53.1 °F 39% 29.99 in 10.0 mi South 5.8 mph - N/A   Clear
5:51 PM 77.0 °F - 55.0 °F 47% 30.01 in 10.0 mi Variable 4.6 mph - N/A   Clear
6:51 PM 75.9 °F - 54.0 °F 46% 30.02 in 10.0 mi SSE 6.9 mph - N/A   Clear
7:51 PM 73.0 °F - 54.0 °F 51% 30.04 in 10.0 mi SSE 6.9 mph 16.1 mph N/A   Clear
8:51 PM 71.1 °F - 57.9 °F 63% 30.05 in 10.0 mi South 9.2 mph - N/A   Clear
9:51 PM 69.1 °F - 60.1 °F 73% 30.05 in 10.0 mi SSE 6.9 mph - N/A   Partly Cloudy
10:51 PM 68.0 °F - 60.1 °F 76% 30.04 in 10.0 mi Variable 6.9 mph 16.1 mph N/A   Partly Cloudy
11:51 PM 66.9 °F - 60.1 °F 79% 30.04 in 10.0 mi South 6.9 mph - N/A   Clear